Wind_Speed
36 38 36 32 27 28 26 25 27 27 27 27 24 21 18 22 21 6 1 0 5 2 3 6 10 9 3 5 0 8 4 2 5 5 3 2 3 4 3 4 6 5 5 4 4 5 4 14 4 5 5 5 7 10
34 38 36 33 29 27 24 29 28 28 27 26 26 22 17 19 21 9 2 3 1 2 4 4 5 6 9 9 7 1 2 3 6 3 1 2 2 1 4 3 0 3 5 3 5 7 5 9 5 1 1 2 5 4
23 40 37 34 31 28 26 28 29 27 27 27 25 22 19 19 19 8 2 6 3 2 1 2 2 7 4 4 7 4 6 7 5 4 3 4 1 5 2 3 8 2 7 2 5 5 12 9 12 7 6 3 4 5
19 39 35 32 31 29 27 29 30 28 27 27 25 23 20 19 15 8 4 7 1 3 2 2 0 2 2 1 2 5 4 4 3 3 4 3 2 4 3 6 7 7 0 5 10 8 8 5 11 9 4 2 3 10
17 38 34 33 30 29 26 31 30 29 28 27 25 23 22 20 15 7 5 4 5 1 4 3 5 6 3 4 4 2 1 2 3 1 3 1 3 4 4 6 7 9 11 6 3 7 3 7 7 8 4 5 9 10
21 27 31 32 30 29 28 33 32 30 27 26 24 24 24 19 15 7 2 2 3 2 2 3 3 6 5 5 6 5 4 2 3 1 1 3 11 4 3 4 12 13 3 3 3 7 6 7 8 13 10 11 11 11
29 28 32 32 31 30 30 34 31 29 27 27 25 30 25 19 9 3 2 2 8 1 2 1 3 1 3 7 5 3 3 3 3 1 1 5 7 1 3 7 13 15 14 4 7 8 5 1 7 11 15 16 17 13
28 33 33 33 32 32 32 32 32 31 30 29 26 25 25 15 8 5 3 9 9 3 0 1 3 3 4 3 3 2 3 2 1 2 2 5 5 4 4 9 11 11 7 6 7 6 11 14 12 10 13 13 9 8
24 33 35 34 33 33 34 33 33 33 32 32 29 25 19 3 4 4 7 12 2 1 2 3 4 3 5 2 2 2 3 2 4 3 3 4 4 5 8 10 10 7 6 9 10 12 11 10 9 9 9 11 11 8
29 36 38 36 35 34 36 36 35 37 36 34 24 6 2 5 11 18 4 2 4 2 1 3 3 3 4 3 2 3 2 2 3 5 1 0 6 15 15 13 3 4 7 12 10 10 8 8 9 8 9 13 12 11
39 42 40 38 36 36 37 39 38 40 38 14 5 2 8 17 5 2 1 3 2 1 3 3 6 6 3 2 2 2 1 1 2 1 1 2 3 7 5 8 11 11 13 11 6 7 8 12 9 9 9 12 14 15
44 43 41 39 38 37 39 42 47 28 18 13 16 17 11 3 1 3 3 4 3 4 6 6 6 3 3 2 3 1 2 1 1 3 1 3 3 8 10 10 11 11 12 14 13 12 15 13 12 12 12 13 14 16
45 43 41 39 37 37 39 44 29 28 25 23 6 4 4 2 3 7 8 3 4 5 5 7 7 3 3 2 4 2 2 2 1 1 3 2 7 7 9 9 10 15 17 16 16 18 18 19 17 16 16 17 18 16
43 40 39 36 34 36 38 43 28 35 21 4 4 6 5 5 6 5 7 7 6 6 9 6 4 3 2 3 3 3 3 3 2 2 4 5 9 9 8 5 9 10 11 11 13 15 17 19 17 15 15 15 17 16
40 38 34 30 31 34 38 41 36 11 6 4 5 5 6 5 6 8 5 7 7 8 10 6 2 3 2 3 3 3 3 3 4 4 2 4 5 6 6 6 9 7 7 10 13 16 17 16 15 15 15 13 16 17
37 33 23 28 28 32 40 41 20 3 2 3 3 3 7 7 4 4 6 7 8 11 9 5 4 5 5 4 4 4 4 5 1 3 3 5 6 6 7 8 10 9 12 14 16 17 17 17 15 15 14 13 15 14
28 13 23 29 27 28 37 8 2 3 1 1 1 3 6 7 6 5 5 6 13 10 5 3 6 5 2 4 4 5 3 3 4 3 4 6 7 7 9 11 11 9 13 16 18 17 16 15 14 14 14 11 10 10
14 21 30 30 27 24 13 4 1 2 2 3 4 4 6 4 6 5 3 4 3 7 7 1 3 6 4 5 4 3 4 5 4 5 4 6 10 12 12 11 11 13 13 15 16 15 15 13 13 12 13 12 11 9
16 28 32 34 28 7 3 3 4 4 1 2 5 5 4 3 5 8 4 7 5 3 1 2 3 3 5 1 5 6 6 5 6 5 4 10 12 11 12 12 14 15 14 15 15 12 11 11 12 11 11 10 8 7
20 34 41 24 22 3 3 1 2 4 3 2 4 5 3 3 2 2 4 4 2 3 2 1 3 1 3 4 4 5 6 9 8 7 6 8 12 13 14 12 13 14 13 14 14 14 13 12 12 10 9 9 9 7
33 36 30 17 5 4 2 0 3 3 4 3 5 4 3 2 1 1 2 3 3 1 3 4 2 3 5 4 4 7 9 13 7 7 8 7 14 14 14 15 14 13 13 12 11 11 12 12 14 11 11 10 8 9
17 35 7 7 4 4 2 2 4 5 3 4 6 4 3 3 3 3 3 2 2 3 1 2 2 1 2 3 7 9 12 14 13 17 17 18 10 11 12 13 12 12 13 11 12 14 16 16 13 10 12 9 7 7
16 17 5 4 2 3 2 2 3 4 4 6 6 4 3 3 3 5 3 3 2 2 3 2 4 6 8 10 14 17 19 20 15 16 16 15 15 16 16 14 14 13 12 12 12 12 13 12 12 11 10 8 7 5
13 5 2 2 2 4 3 2 4 4 4 3 4 4 5 3 4 3 3 3 3 5 4 8 11 6 11 12 8 12 16 18 17 16 17 17 14 13 14 14 14 13 12 12 11 11 11 13 12 10 10 8 5 4
4 3 3 3 2 4 3 4 3 4 4 5 5 3 5 5 5 4 4 4 5 5 6 10 10 9 6 5 11 15 17 18 17 16 18 16 17 17 15 13 12 9 10 11 12 13 13 12 11 10 8 6 7 6
4 1 1 3 4 4 6 5 6 6 4 3 4 5 4 4 4 4 2 6 5 6 7 8 8 7 7 13 10 14 16 18 18 15 18 17 15 14 14 12 11 9 8 11 14 16 15 13 11 9 9 8 8 7
4 2 2 2 2 5 4 3 6 4 4 5 5 5 5 5 6 2 3 7 5 13 17 15 18 16 15 17 17 19 17 19 19 17 16 14 13 13 14 13 13 11 12 12 14 15 15 13 10 9 9 8 7 5
2 3 5 2 3 1 3 3 3 4 4 5 7 6 8 4 2 2 1 13 19 20 19 19 18 20 20 20 19 20 24 26 24 24 22 18 16 16 17 18 17 13 12 13 12 11 10 11 12 12 11 9 9 8
3 4 4 5 3 3 2 1 2 3 4 4 4 3 3 2 3 2 3 18 19 19 20 21 20 26 22 18 18 19 20 20 19 13 12 8 11 10 12 17 14 13 14 14 13 12 12 11 11 9 8 9 8 9
3 2 3 2 2 2 2 3 2 2 3 4 4 3 3 2 3 4 6 17 16 17 19 22 24 23 20 20 18 14 12 13 17 16 10 9 15 16 16 15 16 15 16 16 15 15 13 12 11 10 9 9 8 6
3 2 3 3 3 2 4 3 3 3 3 3 3 4 5 3 3 11 10 19 23 23 22 19 19 20 21 19 17 15 10 14 15 14 16 21 21 19 17 16 15 15 14 13 13 13 12 12 10 9 8 7 7 7
2 2 4 3 3 3 2 2 2 2 3 4 3 3 3 3 2 2 5 19 22 17 18 20 20 17 17 16 17 12 16 21 18 18 19 21 19 18 16 15 15 16 14 13 12 12 11 9 8 8 8 9 9 9
4 5 6 5 5 6 3 3 3 3 2 2 2 2 1 2 3 3 6 10 17 20 21 20 21 23 22 20 20 21 22 20 19 16 16 16 17 17 14 13 15 15 13 12 10 9 9 9 9 9 9 10 9 8
Wind_Direction
203 199 198 196 199 192 192 191 187 185 185 180 176 175 181 188 186 200 261 262 345 48 90 18 28 28 324 349 165 119 151 226 173 217 213 199 279 275 247 266 283 285 356 325 318 336 321 15 27 38 346 51 53 58
199 195 199 193 190 187 187 184 183 181 177 175 180 177 180 179 186 193 223 163 43 30 58 42 49 42 50 28 347 318 38 118 28 265 230 227 218 272 284 271 39 336 53 10 359 334 14 63 73 101 359 61 31 75
191 190 193 191 185 182 183 182 182 181 177 177 177 178 177 171 177 173 232 158 184 61 322 194 174 106 41 21 12 349 58 351 60 353 346 18 348 353 308 285 341 130 65 346 350 337 334 8 357 6 8 354 19 113
207 187 185 182 179 179 180 181 180 177 174 176 177 175 173 176 178 177 174 165 256 159 116 211 41 215 26 21 55 60 48 13 341 327 55 50 307 320 297 326 312 314 182 300 299 309 355 70 17 350 341 326 75 116
197 174 180 177 176 175 179 180 177 174 173 174 173 168 163 160 147 129 134 144 58 79 176 150 142 117 130 164 185 194 256 328 289 120 73 236 251 260 265 278 273 273 272 267 292 40 2 33 8 351 80 66 101 121
192 179 176 172 172 171 174 176 172 171 170 172 172 168 167 156 142 131 79 188 150 51 64 167 114 144 139 161 141 146 170 213 249 44 257 258 274 289 273 253 251 262 297 37 34 77 65 80 51 51 73 68 87 103
183 178 173 170 169 169 168 168 165 163 162 157 163 165 161 153 139 104 104 141 163 161 87 105 121 113 138 146 117 75 28 3 6 58 265 277 289 260 252 252 269 287 294 79 119 118 124 56 102 90 102 109 103 105
185 169 173 168 167 167 167 163 163 158 155 149 150 149 155 144 126 111 63 139 140 115 297 242 111 137 211 198 121 111 103 28 221 260 247 255 268 217 255 257 264 261 107 104 97 111 99 114 119 118 122 113 94 102
173 171 171 165 166 166 165 162 162 155 149 148 148 140 138 148 157 101 143 137 84 118 164 186 179 165 163 187 78 114 166 172 177 220 233 236 219 221 241 264 278 289 144 131 115 115 130 130 130 137 143 144 130 123
170 174 167 163 163 162 162 162 161 150 145 142 126 92 49 158 136 121 94 59 14 345 253 230 152 135 170 175 145 133 187 223 207 215 196 132 257 259 262 270 35 91 109 118 134 147 135 145 145 134 133 125 133 133
168 168 162 161 161 160 160 161 155 146 145 145 139 102 129 139 147 136 88 142 148 165 209 219 218 147 191 139 136 66 202 8 239 57 288 247 259 16 8 106 72 83 93 104 114 131 143 120 119 116 110 111 118 115
165 162 159 158 159 160 159 161 155 148 158 154 114 115 124 138 74 115 175 173 198 213 165 184 193 113 125 163 109 51 143 17 213 314 232 261 101 77 76 83 87 94 107 91 73 70 96 101 108 106 107 107 116 121
161 159 158 158 160 162 163 165 138 145 141 134 105 121 161 109 148 183 180 176 191 185 158 167 169 114 142 157 77 141 133 204 260 308 242 295 101 90 92 88 85 92 95 89 77 80 88 84 94 108 107 116 121 117
156 158 158 159 164 168 167 172 149 150 145 107 114 139 193 178 203 183 189 165 207 173 149 153 122 142 133 157 122 172 189 141 204 213 237 81 88 83 80 96 93 90 99 97 94 94 89 89 89 95 107 124 123 121
155 156 156 159 165 171 171 167 169 165 172 143 156 181 179 185 192 192 172 163 179 132 135 150 138 115 88 117 198 166 156 235 221 234 81 102 111 113 128 122 107 114 114 103 101 96 96 100 98 98 107 113 124 129
152 151 155 162 163 171 172 172 182 224 261 209 201 190 171 142 126 192 160 154 137 131 157 193 150 165 182 158 169 198 185 218 111 74 118 116 126 104 94 116 140 134 124 119 114 110 109 112 110 106 103 112 126 132
142 142 163 161 162 167 173 144 85 358 18 7 239 186 145 155 159 155 149 160 137 151 172 181 175 183 177 129 196 204 208 78 121 117 112 121 136 149 126 101 125 150 130 121 117 117 113 113 115 110 107 114 112 123
142 155 164 166 156 149 163 76 91 109 121 210 151 100 75 86 149 165 83 222 136 182 205 222 299 203 167 191 213 122 111 112 108 123 130 143 117 121 141 140 129 121 119 113 115 121 124 128 110 110 121 127 127 134
145 154 160 158 157 99 93 187 227 133 43 37 101 98 77 66 48 14 28 33 38 51 153 226 236 235 231 16 84 108 125 130 125 111 103 115 119 126 129 126 118 120 128 127 123 121 120 119 128 134 143 157 128 142
151 152 153 141 151 108 104 297 326 89 119 116 135 99 67 50 26 33 41 35 70 90 52 240 234 34 31 51 38 116 135 143 138 129 113 107 119 127 131 131 129 138 130 119 114 117 119 114 113 115 109 110 119 117
139 151 150 139 75 76 95 87 94 104 118 103 130 110 104 139 118 83 42 342 29 193 221 230 31 53 35 38 84 120 144 151 149 147 143 148 156 151 138 136 131 126 129 141 133 136 124 114 109 109 100 102 100 99
131 151 92 60 79 157 133 236 121 119 123 144 151 130 126 145 146 166 126 181 218 216 59 29 61 41 112 118 127 152 160 145 135 125 130 127 125 126 135 146 138 119 122 127 120 111 102 106 116 117 123 117 114 105
116 134 99 85 79 40 90 204 106 137 127 163 150 122 149 154 152 154 207 212 204 82 102 164 186 154 134 117 113 112 122 121 124 129 130 126 123 111 106 108 110 105 98 91 114 120 117 128 122 124 126 116 120 103
110 74 91 98 114 112 149 208 125 100 112 174 168 135 155 132 153 213 243 197 117 144 172 174 151 124 117 117 123 133 134 135 124 118 122 123 123 127 118 101 97 112 124 138 140 134 132 116 122 119 113 103 110 103
114 97 185 136 141 128 136 124 146 101 166 162 143 145 162 174 195 215 230 156 162 172 166 158 153 148 133 121 123 131 136 134 133 134 140 135 121 110 106 108 111 120 137 144 149 148 133 121 122 118 111 115 120 112
87 120 152 138 164 144 151 136 161 171 132 140 160 133 171 179 177 233 224 159 160 163 166 160 149 134 126 133 140 152 156 150 137 119 124 141 147 144 138 134 130 109 127 140 149 147 137 132 122 118 107 102 108 108
111 131 123 307 150 111 99 112 136 124 142 161 157 167 170 175 215 140 105 143 153 160 165 162 150 142 141 148 140 138 140 132 128 133 136 133 136 145 152 154 141 139 143 140 139 140 133 128 127 121 112 110 108 104
94 120 131 122 85 56 107 114 147 163 169 155 154 179 171 200 134 95 347 139 142 151 146 146 147 139 132 128 126 118 114 120 116 112 104 88 87 101 118 121 131 144 145 138 145 146 144 143 137 135 127 118 108 109
80 109 87 95 79 77 79 136 145 55 340 171 147 128 113 62 2 358 70 140 144 142 133 128 122 122 120 119 118 123 129 133 139 133 130 130 126 116 122 134 134 136 139 136 139 141 141 141 140 138 131 124 122 116
133 164 97 95 96 98 67 342 61 12 3 48 100 115 99 98 10 343 149 140 138 128 128 127 131 137 140 139 127 120 135 159 157 156 152 152 143 142 143 147 143 143 145 142 139 139 143 141 139 137 136 135 133 125
148 132 102 90 84 80 81 130 159 103 22 37 49 112 118 129 59 51 107 136 132 133 132 133 142 153 152 148 147 136 119 124 136 144 147 152 155 150 145 145 148 149 149 152 150 150 150 148 144 143 139 133 131 131
185 169 133 119 124 145 260 172 92 109 124 129 113 121 164 150 106 105 97 145 142 151 161 159 157 157 160 160 159 155 158 145 144 147 147 152 153 146 146 151 158 159 157 155 155 153 152 151 149 149 144 142 142 142
142 113 110 115 141 171 170 201 139 129 149 134 108 150 129 133 133 134 152 153 162 160 164 161 155 156 155 153 150 146 146 146 148 152 152 152 150 154 159 160 161 157 158 166 168 154 155 157 153 152 155 153 151 150
Height
688 695 703 711 717 723 729 735 741 747 753 758 764 770 774 779 784 786 787 787 787 785 786 787 786 786 780 778 782 786 790 790 791 795 792 795 795 784 782 778 782 784 790 794 788 800 818 782 779 796 802 790 792 798
686 692 701 708 715 721 728 734 740 746 752 757 764 770 775 779 784 788 788 788 789 790 792 794 794 795 796 797 795 786 787 783 787 786 782 779 788 784 783 795 772 791 789 795 794 795 784 787 793 793 795 795 799 803
683 690 699 707 713 720 726 733 740 745 752 758 764 770 775 780 784 788 789 790 791 792 794 793 793 797 798 799 801 797 797 798 796 798 793 796 799 791 797 791 783 778 782 792 795 786 786 789 791 791 795 799 800 805
681 689 698 704 711 718 725 733 739 745 752 758 764 770 775 781 785 788 790 791 792 794 805 798 797 798 800 801 802 803 805 803 803 799 809 815 810 793 797 792 794 784 786 789 790 786 785 789 797 798 799 801 801 806
682 686 696 703 710 717 724 732 739 746 752 758 765 771 776 782 787 790 791 793 795 798 805 796 797 800 801 802 804 805 807 807 804 806 823 820 803 800 795 796 797 787 786 791 793 789 797 799 802 799 800 803 806 810
683 686 695 702 710 718 724 732 740 747 753 759 766 772 778 784 789 791 794 796 797 798 799 798 799 799 802 803 804 806 807 808 806 809 809 804 798 801 803 799 785 778 774 776 788 795 799 804 805 805 806 810 813 816
684 689 696 704 711 719 726 734 741 748 755 761 766 774 781 787 790 792 794 796 798 799 803 802 802 800 801 802 805 809 811 810 810 814 814 808 801 802 802 802 787 780 776 778 786 796 802 803 810 813 814 817 819 823
686 690 699 705 713 720 728 735 742 750 757 764 770 776 783 788 792 794 796 796 798 800 800 804 800 804 803 801 806 811 814 819 817 813 809 806 799 797 804 786 779 773 778 785 790 794 798 807 814 818 818 821 825 828
684 692 700 707 715 723 730 737 745 752 759 767 773 780 787 791 792 794 795 799 800 804 803 800 797 800 803 804 804 809 812 820 812 813 807 801 799 802 788 783 776 773 780 786 793 802 808 812 816 821 823 823 826 831
687 696 703 710 718 725 731 739 747 754 762 769 776 782 792 791 793 796 801 803 806 803 801 798 792 799 801 802 806 810 808 810 809 804 798 807 795 783 778 775 775 778 784 791 799 805 810 813 815 819 822 823 828 833
691 698 705 713 721 727 734 742 749 757 764 769 776 784 789 792 796 796 805 805 807 807 800 795 791 795 799 804 803 803 809 807 808 803 801 798 789 780 768 776 783 787 793 799 804 806 809 813 818 823 826 829 833 836
693 701 709 716 723 730 736 743 749 754 761 766 771 783 791 795 799 802 803 795 799 788 790 793 792 794 797 799 806 814 811 815 810 805 804 798 782 785 787 791 794 797 800 804 810 811 813 817 821 825 830 835 837 840
697 705 712 719 726 732 738 744 748 757 762 767 773 780 781 789 797 796 796 792 790 779 783 787 791 794 798 797 808 811 818 819 811 814 803 782 786 791 795 799 803 807 811 815 818 820 823 824 827 831 835 838 840 844
701 709 716 723 729 735 741 747 752 758 762 769 778 782 783 788 777 776 768 775 775 772 778 786 791 793 795 798 808 813 807 813 815 815 795 785 795 802 806 810 812 818 822 823 823 826 828 830 834 837 840 842 844 847
707 715 721 728 733 739 745 753 757 761 760 762 764 773 769 761 760 761 759 765 769 770 782 788 792 790 800 805 807 803 811 810 804 788 792 803 808 811 813 815 820 825 826 827 827 829 832 836 839 842 845 846 847 850
712 721 727 731 737 743 749 756 760 766 761 758 756 757 753 759 763 761 759 763 765 775 781 781 786 792 791 790 798 804 800 793 784 801 807 809 813 815 818 821 825 826 827 828 830 832 836 840 844 847 849 850 853 855
716 720 727 735 742 748 755 760 765 766 766 765 760 754 753 758 766 765 764 765 768 774 779 774 779 780 775 786 795 781 782 791 806 810 810 813 816 819 821 824 827 828 828 829 832 835 839 844 847 850 852 855 856 858
719 724 732 740 747 755 760 763 768 770 773 766 760 760 763 764 767 766 770 770 773 775 774 776 771 773 779 781 777 779 795 802 806 810 813 815 818 822 826 827 828 830 833 834 837 839 842 846 849 852 855 857 859 861
721 727 735 744 750 755 763 770 768 770 770 764 763 767 772 775 776 777 776 777 776 777 779 779 778 777 773 769 777 789 798 804 809 814 817 819 822 825 828 831 832 834 838 838 840 842 845 848 851 854 856 857 859 861
726 733 742 747 755 757 762 764 761 759 766 772 770 774 782 785 786 786 786 784 782 784 790 786 780 777 783 788 790 794 799 804 809 816 821 824 827 830 832 834 834 837 838 840 843 846 849 851 853 854 855 857 859 862
731 739 745 748 754 758 761 762 761 768 771 775 778 779 787 788 789 790 792 791 791 789 786 782 785 793 795 795 796 798 802 806 809 813 819 824 827 829 832 834 837 839 841 843 845 848 850 852 854 857 858 861 862 864
731 739 743 751 756 761 763 763 760 765 771 775 777 780 786 788 791 791 794 792 790 785 790 793 797 798 798 798 799 802 805 807 811 816 820 823 827 831 833 836 838 840 843 845 846 848 851 854 857 859 861 863 865 866
735 743 750 758 760 759 765 761 759 763 771 772 771 777 781 783 785 792 790 787 786 792 795 798 799 799 800 801 803 805 808 810 816 820 823 826 829 832 835 838 841 843 845 848 850 852 854 857 859 860 862 863 865 867
737 747 753 754 755 759 762 761 755 764 771 772 771 774 779 783 788 789 783 781 789 793 796 797 798 799 802 803 805 808 811 815 817 821 825 828 831 836 838 841 843 845 848 851 853 855 857 858 860 862 863 864 867 869
740 755 755 754 753 757 758 756 755 763 769 768 771 776 779 781 780 778 772 778 787 790 793 795 797 799 800 804 807 811 814 815 818 822 827 831 834 837 841 845 847 849 851 852 854 856 858 860 862 864 865 867 868 870
740 751 747 746 749 748 749 757 761 763 763 766 766 768 774 773 774 771 764 773 782 786 789 791 794 798 803 806 808 811 814 817 819 823 828 832 836 838 842 845 848 851 851 853 855 857 859 862 864 865 867 868 870 871
741 746 744 743 738 739 746 748 748 754 761 762 763 769 770 769 767 767 772 775 779 785 789 792 795 798 802 806 809 812 814 817 821 826 830 833 836 838 841 843 846 851 852 854 856 858 860 862 865 866 868 869 871 872
743 742 747 747 746 745 747 748 752 753 750 750 758 762 759 758 761 774 776 777 779 784 788 793 796 800 803 807 810 812 816 819 823 827 830 835 837 839 841 843 848 851 853 855 857 860 861 863 865 867 869 871 871 872
746 744 748 753 751 753 753 752 748 752 756 749 755 758 768 776 779 778 777 780 782 785 788 792 797 801 806 811 814 817 820 822 825 829 834 837 841 844 845 847 850 852 854 856 859 861 863 865 866 868 869 871 872 874
750 748 752 755 754 756 763 765 763 764 762 760 765 771 776 781 782 780 779 781 784 787 791 794 798 804 809 812 816 819 822 824 826 829 832 835 839 843 846 848 850 853 855 857 859 861 864 865 867 869 871 872 873 874
748 749 752 754 760 764 766 767 767 767 766 766 766 769 775 780 783 782 782 783 786 790 794 799 804 808 810 813 816 819 822 825 828 829 832 835 839 842 845 848 851 853 856 858 860 862 863 866 868 869 871 872 873 874
750 748 749 756 764 768 768 766 766 767 769 770 772 775 778 777 781 785 786 786 789 794 798 801 804 807 810 814 817 819 821 824 827 830 833 836 839 842 845 848 850 853 855 858 860 862 864 866 867 869 871 872 873 874
751 751 753 757 762 763 766 764 763 766 767 767 770 772 772 773 778 786 787 787 790 793 797 800 803 806 810 814 816 819 823 826 829 831 834 837 839 842 845 848 850 853 856 858 860 862 864 865 867 869 870 871 872 873